EDT,Max TemperatureF,Mean TemperatureF,Min TemperatureF,Max Dew PointF,MeanDew PointF,Min DewpointF,Max Humidity, Mean Humidity, Min Humidity, Max Sea Level PressureIn, Mean Sea Level PressureIn, Min Sea Level PressureIn, Max VisibilityMiles, Mean VisibilityMiles, Min VisibilityMiles, Max Wind SpeedMPH, Mean Wind SpeedMPH, Max Gust SpeedMPH,PrecipitationIn, CloudCover, Events, WindDirDegrees
2013-5-1,69,66,62,64,63,61,100,88,78,30.08,30.04,29.99,10,10,7,13,5,18,0.00,5,Rain,76
2013-5-2,75,70,64,66,63,59,94,84,73,30.07,30.02,29.98,10,10,7,15,8,24,0.00,8,Rain,70
2013-5-3,71,66,60,64,62,59,100,91,73,30.00,29.92,29.87,10,8,2,15,8,25,0.00,8,Rain,71
2013-5-4,62,55,48,61,56,48,100,97,88,29.89,29.85,29.81,10,7,2,10,5,16,0.00,7,Rain,18
2013-5-5,75,58,42,59,49,43,100,75,41,29.93,29.86,29.76,10,10,10,15,3,23,0.00,2,,244
2013-5-6,69,56,44,55,49,45,100,75,49,30.00,29.95,29.91,10,10,10,13,3,21,0.00,4,,257
2013-5-7,73,63,53,59,54,52,100,77,47,30.04,29.97,29.92,10,10,7,12,2,18,0.00,4,,292
2013-5-8,80,61,42,63,54,43,100,75,42,30.12,30.07,30.02,10,10,5,10,1,,0.00,1,,273
2013-5-9,86,68,51,64,60,52,100,69,40,30.16,30.11,30.06,10,9,1,8,1,,0.00,2,,243
2013-5-10,82,66,51,64,60,52,100,75,45,30.15,30.06,29.96,10,9,4,8,1,,0.00,0,,207
2013-5-11,78,66,55,68,63,55,100,84,61,30.04,30.00,29.95,10,9,0,12,2,17,0.00,4,Fog-Rain,244
2013-5-12,80,70,59,66,57,52,100,69,41,30.10,30.03,29.96,10,10,10,10,4,22,0.00,0,,328
2013-5-13,77,64,50,54,45,41,88,56,28,30.26,30.19,30.10,10,10,7,13,2,20,0.00,0,,356
2013-5-14,82,63,44,61,52,45,100,68,37,30.30,30.23,30.16,10,10,7,7,0,,0.00,0,,304
2013-5-15,87,68,50,64,57,50,100,69,38,30.25,30.16,30.06,10,10,7,9,1,,0.00,0,,232
2013-5-16,86,73,60,66,61,59,94,69,43,30.13,30.07,30.00,10,10,5,8,1,,0.00,0,,197
2013-5-17,87,71,55,68,63,55,100,76,43,30.13,30.07,30.02,10,10,5,9,1,,0.00,1,,211
2013-5-18,82,72,62,72,68,63,100,84,66,30.16,30.09,30.04,10,9,0,8,2,,0.00,5,Fog-Thunderstorm,181
2013-5-19,89,71,53,72,66,54,100,78,46,30.11,30.06,29.99,10,7,0,7,1,,0.00,2,Fog,175
2013-5-20,91,80,69,73,69,66,94,71,46,30.10,30.03,29.93,10,9,1,10,2,,0.00,1,Rain,154
2013-5-21,91,75,59,72,67,59,100,73,41,30.05,29.99,29.91,10,8,0,6,1,,0.00,1,Fog,166
2013-5-22,91,76,60,73,68,61,100,69,46,30.01,29.95,29.88,10,9,1,8,1,,0.00,3,Thunderstorm,224
2013-5-23,91,76,62,72,65,61,100,65,36,30.02,29.98,29.94,10,10,4,12,3,18,0.00,2,,314
2013-5-24,87,78,68,64,58,52,83,55,29,30.19,30.09,30.00,10,10,7,13,3,22,0.00,0,,350
2013-5-25,87,71,55,63,53,50,88,54,29,30.29,30.21,30.17,10,10,10,10,1,,0.00,0,,93
2013-5-26,89,71,53,68,60,54,100,69,31,30.27,30.19,30.13,10,10,10,6,1,,0.00,0,,196
2013-5-27,89,72,55,70,62,55,100,69,36,30.24,30.16,30.09,10,10,7,10,1,,0.00,0,,150
2013-5-28,91,75,59,66,62,59,100,64,34,30.17,30.14,30.08,10,10,10,9,2,16,0.00,0,,117
2013-5-29,91,76,60,70,67,61,100,69,41,30.17,30.11,30.06,10,10,10,12,3,18,0.00,3,,115
2013-5-30,89,76,64,72,68,64,100,71,49,30.18,30.11,30.05,10,10,10,10,3,17,0.00,4,,108
2013-5-31,89,74,60,72,68,61,100,72,43,30.17,30.10,30.03,,,,9,2,17,0.00,4,,130